Weather History for Greensboro, GA

Change the Weather History Date:

Friday, February 22, 2013

  Actual Average (KDBN) Record (KDBN)
Temperature  
Mean Temperature 46 °F -  
Max Temperature 53 °F 66 °F 80 °F (1976)
Min Temperature 39 °F 39 °F 19 °F (1963)
Degree Days  
Heating Degree Days 19    
Moisture  
Dew Point 39 °F    
Average Humidity 91    
Maximum Humidity 100    
Minimum Humidity 47    
Precipitation  
Precipitation 0.00 in - - ()
Sea Level Pressure  
Sea Level Pressure 30.09 in    
Wind  
Wind Speed 4 mph (NNE)    
Max Wind Speed 8 mph    
Max Gust Speed 20 mph    
Visibility 4 miles    
Events Rain , Thunderstorm    
Averages and records for this station are not official NWS values.
T = Trace of Precipitation, MM = Missing Value Source: NWS Daily Summary

Daily Weather History Graph

Daily Weather History Graph

Search for Another Location

Airport:

Trip Planner

Search our weather history database for the weather conditions in past years. The results will help you decide how hot, cold, wet, or windy it might be!

Date:

Astronomy

Feb. 22, 2013 Rise Set
Actual Time 7:08 AM EST 6:23 PM EST
Civil Twilight 6:43 AM EST 6:48 PM EST
Nautical Twilight 6:14 AM EST 7:17 PM EST
Astronomical Twilight 5:45 AM EST 7:46 PM EST
Moon 3:39 PM EST (2/22) 4:47 AM EST (2/22)
Length of Visible Light 12h 04m
Length of Day
11h 14m
Waxing Gibbous, 90% of the Moon is Illuminated
Feb 22
Waxing Gibbous
Feb 25
Full
Mar 4
Last Quarter
Mar 11
New
Mar 19
First Quarter

Hourly Weather History & Observations

Time (EST) Temp. Windchill Dew Point Humidity Pressure Visibility Wind Dir Wind Speed Gust Speed Precip Events Conditions
12:15 AM 53.6 °F - 33.8 °F 47% 30.05 in 10.0 mi East 6.9 mph - N/A   Overcast
12:35 AM 53.6 °F - 33.8 °F 47% 30.05 in 10.0 mi ENE 4.6 mph - N/A   Overcast
12:55 AM 53.6 °F - 33.8 °F 47% 30.06 in 10.0 mi NNE 4.6 mph - N/A Thunderstorm Thunderstorm
1:15 AM 53.6 °F - 35.6 °F 51% 30.09 in 10.0 mi Calm Calm - N/A   Overcast
1:35 AM 53.6 °F - 35.6 °F 51% 30.12 in 10.0 mi Calm Calm - N/A   Overcast
1:55 AM 53.6 °F - 35.6 °F 51% 30.14 in 10.0 mi North 3.5 mph - N/A   Overcast
2:15 AM 51.8 °F - 37.4 °F 58% 30.13 in 10.0 mi Calm Calm - N/A Rain Light Rain
2:35 AM 46.4 °F - 41.0 °F 81% 30.12 in 5.0 mi Calm Calm - N/A Rain Rain
2:55 AM 46.4 °F 45.2 °F 42.8 °F 87% 30.12 in 7.0 mi North 3.5 mph - N/A Rain Light Rain
3:15 AM 44.6 °F 42.2 °F 42.8 °F 93% 30.10 in 3.0 mi NNE 4.6 mph - N/A Rain Rain
3:35 AM 44.6 °F 40.2 °F 41.0 °F 87% 30.07 in 3.0 mi NE 8.1 mph - N/A Rain Heavy Rain
3:55 AM 44.6 °F 42.2 °F 41.0 °F 87% 30.11 in 4.0 mi North 4.6 mph - N/A Rain Rain
4:15 AM 42.8 °F 40.1 °F 41.0 °F 93% 30.07 in 1.5 mi NNE 4.6 mph - N/A   Overcast
4:35 AM 42.8 °F 39.3 °F 41.0 °F 93% 30.06 in 4.0 mi NNE 5.8 mph 19.6 mph N/A Rain Light Rain
4:55 AM 42.8 °F 39.3 °F 41.0 °F 93% 30.08 in 5.0 mi NNE 5.8 mph - N/A Rain Rain
5:15 AM 42.8 °F 40.1 °F 41.0 °F 93% 30.08 in 1.8 mi NE 4.6 mph - N/A Rain Light Rain
5:35 AM 42.8 °F 39.3 °F 41.0 °F 93% 30.09 in 3.0 mi NE 5.8 mph - N/A Rain Heavy Rain
5:55 AM 42.8 °F 38.0 °F 41.0 °F 93% 30.06 in 2.0 mi ENE 8.1 mph 19.6 mph N/A Rain Heavy Rain
6:15 AM 42.8 °F 38.6 °F 41.0 °F 93% 30.09 in 4.0 mi ENE 6.9 mph - N/A Rain Rain
6:35 AM 42.8 °F 41.1 °F 41.0 °F 93% 30.10 in 3.0 mi NE 3.5 mph - N/A Rain Rain
6:55 AM 42.8 °F 39.3 °F 41.0 °F 93% 30.09 in 5.0 mi ENE 5.8 mph - N/A Rain Light Rain
7:15 AM 41.0 °F 35.8 °F 41.0 °F 100% 30.06 in 5.0 mi East 8.1 mph - N/A Rain Light Rain
7:35 AM 41.0 °F 36.4 °F 41.0 °F 100% 30.10 in 5.0 mi NE 6.9 mph - N/A   Overcast
7:55 AM 41.0 °F - 41.0 °F 100% 30.12 in 5.0 mi Calm Calm - N/A   Overcast
8:35 AM 41.0 °F 39.0 °F 41.0 °F 100% 30.13 in 4.0 mi NE 3.5 mph - N/A   Overcast
8:55 AM 41.0 °F 39.0 °F 41.0 °F 100% 30.13 in 3.0 mi NE 3.5 mph - N/A   Drizzle
9:15 AM 41.0 °F 39.0 °F 41.0 °F 100% 30.14 in 4.0 mi NE 3.5 mph - N/A   Drizzle
9:35 AM 41.0 °F 39.0 °F 39.2 °F 93% 30.13 in 4.0 mi North 3.5 mph - N/A   Light Drizzle
9:55 AM 41.0 °F 39.0 °F 39.2 °F 93% 30.14 in 3.0 mi North 3.5 mph - N/A   Drizzle
10:15 AM 41.0 °F 37.1 °F 41.0 °F 100% 30.13 in 2.0 mi NE 5.8 mph - N/A   Drizzle
10:35 AM 41.0 °F 39.0 °F 39.2 °F 93% 30.14 in 3.0 mi NNE 3.5 mph - N/A   Overcast
10:55 AM 41.0 °F - 39.2 °F 93% 30.15 in 1.8 mi Calm Calm - N/A Rain Rain
11:15 AM 41.0 °F 37.1 °F 39.2 °F 93% 30.13 in 2.0 mi NE 5.8 mph - N/A   Drizzle
11:35 AM 41.0 °F 39.0 °F 39.2 °F 93% 30.12 in 2.5 mi NNE 3.5 mph - N/A   Light Drizzle
11:55 AM 41.0 °F 39.0 °F 39.2 °F 93% 30.13 in 3.0 mi NNE 3.5 mph - N/A   Overcast
12:15 PM 41.0 °F 37.1 °F 39.2 °F 93% 30.13 in 3.0 mi NNE 5.8 mph - N/A   Overcast
12:35 PM 41.0 °F 39.0 °F 39.2 °F 93% 30.13 in 5.0 mi North 3.5 mph - N/A   Overcast
12:55 PM 41.0 °F 39.0 °F 39.2 °F 93% 30.13 in 3.0 mi NE 3.5 mph - N/A   Overcast
1:15 PM 41.0 °F 38.0 °F 39.2 °F 93% 30.11 in 2.0 mi NNE 4.6 mph - N/A   Drizzle
1:35 PM 41.0 °F 38.0 °F 41.0 °F 100% 30.10 in 2.0 mi NNE 4.6 mph - N/A   Light Drizzle
1:55 PM 41.0 °F - 39.2 °F 93% 30.10 in 2.5 mi Calm Calm - N/A   Overcast
2:15 PM 41.0 °F 39.0 °F 41.0 °F 100% 30.10 in 2.5 mi NE 3.5 mph - N/A   Overcast
2:35 PM 41.0 °F - 41.0 °F 100% 30.10 in 1.8 mi Calm Calm - N/A   Overcast
2:55 PM 41.0 °F 38.0 °F 39.2 °F 93% 30.09 in 2.0 mi NNE 4.6 mph - N/A   Overcast
3:15 PM 41.0 °F 38.0 °F 39.2 °F 93% 30.08 in 2.5 mi NNE 4.6 mph - N/A   Overcast
3:35 PM 41.0 °F 38.0 °F 39.2 °F 93% 30.07 in 2.5 mi NE 4.6 mph - N/A   Overcast
3:55 PM 41.0 °F 38.0 °F 39.2 °F 93% 30.06 in 2.5 mi NE 4.6 mph - N/A   Light Drizzle
4:15 PM 41.0 °F 38.0 °F 39.2 °F 93% 30.06 in 2.0 mi North 4.6 mph - N/A   Light Drizzle
4:35 PM 41.0 °F 39.0 °F 39.2 °F 93% 30.07 in 1.8 mi NNE 3.5 mph - N/A   Light Drizzle
4:55 PM 41.0 °F 39.0 °F 39.2 °F 93% 30.05 in 1.5 mi NNE 3.5 mph - N/A   Drizzle
5:15 PM 41.0 °F 37.1 °F 39.2 °F 93% 30.05 in 2.0 mi NE 5.8 mph - N/A   Light Drizzle
5:35 PM 41.0 °F 37.1 °F 39.2 °F 93% 30.05 in 1.8 mi NNE 5.8 mph - N/A   Overcast
5:55 PM 41.0 °F 39.0 °F 39.2 °F 93% 30.05 in 1.5 mi NNE 3.5 mph - N/A   Overcast
6:15 PM 39.2 °F 35.9 °F 39.2 °F 100% 30.06 in 2.5 mi NNE 4.6 mph - N/A   Light Drizzle
6:35 PM 39.2 °F 37.0 °F 39.2 °F 100% 30.08 in 5.0 mi NNE 3.5 mph - N/A   Overcast
6:55 PM 39.2 °F 35.9 °F 39.2 °F 100% 30.06 in 4.0 mi NE 4.6 mph - N/A   Overcast
7:15 PM 39.2 °F - 39.2 °F 100% 30.07 in 3.0 mi Calm Calm - N/A   Overcast
7:35 PM 39.2 °F - 39.2 °F 100% 30.07 in 3.0 mi Calm Calm - N/A   Overcast
7:55 PM 39.2 °F - 39.2 °F 100% 30.08 in 2.5 mi Calm Calm - N/A   Overcast
8:15 PM 41.0 °F - 39.2 °F 93% 30.10 in 4.0 mi Calm Calm - N/A   Overcast
8:35 PM 41.0 °F 38.0 °F 39.2 °F 93% 30.09 in 3.0 mi North 4.6 mph - N/A   Overcast
8:55 PM 39.2 °F 37.0 °F 39.2 °F 100% 30.08 in 3.0 mi NE 3.5 mph - N/A   Overcast
9:15 PM 39.2 °F 37.0 °F 39.2 °F 100% 30.08 in 3.0 mi North 3.5 mph - N/A   Overcast
9:35 PM 39.2 °F 37.0 °F 39.2 °F 100% 30.07 in 4.0 mi North 3.5 mph - N/A   Overcast
9:55 PM 39.2 °F 35.9 °F 39.2 °F 100% 30.05 in 3.0 mi NE 4.6 mph - N/A   Overcast
10:15 PM 39.2 °F 37.0 °F 37.4 °F 93% 30.06 in 2.5 mi NE 3.5 mph - N/A   Overcast
10:35 PM 39.2 °F 35.9 °F 37.4 °F 93% 30.04 in 2.0 mi ENE 4.6 mph - N/A Rain Light Rain
10:55 PM 39.2 °F - 39.2 °F 100% 30.06 in 5.0 mi Calm Calm - N/A Rain Light Rain
11:15 PM 39.2 °F 37.0 °F 39.2 °F 100% 30.10 in 7.0 mi NNW 3.5 mph - N/A Rain Light Rain
11:35 PM 39.2 °F 35.9 °F 39.2 °F 100% 30.08 in 3.0 mi North 4.6 mph - N/A Rain Rain
11:55 PM 39.2 °F 37.0 °F 39.2 °F 100% 30.05 in 4.0 mi NE 3.5 mph - N/A Rain Light Rain